TimePDT,TemperatureF,Dew PointF,Humidity,Sea Level PressureIn,VisibilityMPH,Wind Direction,Wind SpeedMPH,Gust SpeedMPH,PrecipitationIn,Events,Conditions,WindDirDegrees,DateUTC
12:53 AM,45.0,30.9,58,30.14,10.0,SSW,10.4,-,N/A,,Clear,210,2013-04-11 07:53:00
1:53 AM,44.1,30.9,60,30.15,10.0,SSW,6.9,-,N/A,,Clear,210,2013-04-11 08:53:00
2:53 AM,44.1,30.9,60,30.16,10.0,South,11.5,-,N/A,,Clear,190,2013-04-11 09:53:00
3:53 AM,42.1,33.1,70,30.17,10.0,SSW,6.9,-,N/A,,Clear,210,2013-04-11 10:53:00
4:53 AM,43.0,34.0,71,30.17,10.0,SSW,6.9,-,N/A,,Clear,200,2013-04-11 11:53:00
5:53 AM,42.1,33.1,70,30.17,10.0,SW,11.5,-,N/A,,Clear,220,2013-04-11 12:53:00
6:53 AM,43.0,34.0,71,30.17,10.0,SW,11.5,-,N/A,,Clear,220,2013-04-11 13:53:00
7:53 AM,45.0,34.0,65,30.20,10.0,SW,13.8,-,N/A,,Clear,220,2013-04-11 14:53:00
8:53 AM,48.0,34.0,58,30.20,10.0,SW,15.0,-,N/A,,Clear,220,2013-04-11 15:53:00
10:53 AM,53.1,34.0,48,30.21,10.0,SW,11.5,-,N/A,,Clear,220,2013-04-11 17:53:00
11:53 AM,55.0,34.0,45,30.20,10.0,SW,12.7,-,N/A,,Clear,230,2013-04-11 18:53:00
12:53 PM,57.0,30.9,37,30.18,10.0,WSW,5.8,-,N/A,,Clear,240,2013-04-11 19:53:00
1:53 PM,60.1,30.9,33,30.15,10.0,South,6.9,-,N/A,,Clear,180,2013-04-11 20:53:00
2:53 PM,59.0,30.9,35,30.15,10.0,SSW,13.8,-,N/A,,Clear,200,2013-04-11 21:53:00
3:53 PM,60.1,32.0,35,30.12,10.0,South,6.9,-,N/A,,Partly Cloudy,190,2013-04-11 22:53:00
4:53 PM,61.0,30.0,31,30.10,10.0,Calm,Calm,-,N/A,,Clear,0,2013-04-11 23:53:00
5:53 PM,61.0,30.9,32,30.09,10.0,SW,11.5,-,N/A,,Partly Cloudy,220,2013-04-12 00:53:00
6:53 PM,59.0,33.1,38,30.09,10.0,SW,10.4,-,N/A,,Mostly Cloudy,230,2013-04-12 01:53:00
7:53 PM,55.0,37.0,51,30.10,10.0,WSW,6.9,-,N/A,,Mostly Cloudy,250,2013-04-12 02:53:00
8:53 PM,48.9,28.9,46,30.12,10.0,NNW,10.4,-,N/A,,Mostly Cloudy,330,2013-04-12 03:53:00
9:53 PM,48.0,28.9,48,30.12,10.0,NW,11.5,-,N/A,,Clear,320,2013-04-12 04:53:00
10:53 PM,48.0,28.0,46,30.13,10.0,Calm,Calm,-,N/A,,Clear,0,2013-04-12 05:53:00
11:53 PM,43.0,30.9,62,30.14,10.0,Calm,Calm,-,N/A,,Mostly Cloudy,0,2013-04-12 06:53:00